Location: Godzisko
(49.9648°N, 19.4576°E)
Time: 01:35:58
(UTC+00:00)

COSMOS 2406 - Pass Details

Date: 20 April 2021
Orbit: 844 x 862 km, 71.0° (Epoch: 07 May)

Event Time Altitude Azimuth Distance (km) Brightness Sun altitude
Rises 00:10:41 0° 330° (NNW) 3,421 6.8 -25.5°
Reaches altitude 10° 00:13:09 10° 330° (NNW) 2,480 6.0 -25.3°
Maximum altitude 00:18:51 84° 243° (WSW) 856 3.1 -24.9°
Enters shadow 00:20:03 57° 162° (SSE) 987 3.2 -24.8°
